Find SWAS

NORAD ID: 25560 Int'l Des: 1998-071 Owner: GSFC Country: US operational
LEOCIRCULAR

实时位置

正在加载3D地球...

关于 SWAS

正在加载描述...

即将过境

Passes for default location (London). Set your location on the main map for personalized predictions.

高度历史

Loading altitude history...

两行轨道根数

1 25560U 98071A 26106.51687419 .00002579 00000-0 16843-3 0 9997
2 25560 69.8979 26.5018 0006796 320.6049 39.4620 15.09190601487962
Epoch: Apr 16, 2026 • Age: 24 hours

当前状态

高度 543.3 km
速度 7.59 km/s
星下点 -26.14°S, 14.11°W
发射日期 Dec 6, 1998
运行时间 27.3 years
类型 other

技术详情

分类 Payload
质量 282.00 kg
干质量 282.00 kg
总质量 282.00 kg
长度 1.70 m
直径 1.00 m
跨度 2.00 m
形状 Cyl+2 Pan
制造商 GSFC
平台类型 SMEX
阶段状态 In Orbit
所有者/国家 GSFC/US

Most Searched